Weather History for KP53 - January, 2014

Change the Weather History Date:

Saturday, January 4, 2014

  Actual Average (KISQ) Record (KISQ)
Temperature  
Mean Temperature 22 °F -  
Max Temperature 26 °F 25 °F 42 °F (2007)
Min Temperature 18 °F 9 °F -12 °F (1979)
Degree Days  
Heating Degree Days 42    
Moisture  
Dew Point 12 °F    
Average Humidity 69    
Maximum Humidity 81    
Minimum Humidity 57    
Precipitation  
Precipitation 0.41 in - - ()
Sea Level Pressure  
Sea Level Pressure 29.75 in    
Wind  
Wind Speed 11 mph (WSW)    
Max Wind Speed 20 mph    
Max Gust Speed 28 mph    
Averages and records for this station are not official NWS values.
T = Trace of Precipitation, MM = Missing Value Source: NWS Daily Summary

Daily Weather History Graph

Daily Weather History Graph

Search for Another Location

Airport or City:

Trip Planner

Search our weather history database for the weather conditions in past years. The results will help you decide how hot, cold, wet, or windy it might be!

Date:

Astronomy

Jan. 04, 2014 Rise Set
Actual Time 8:29 AM EST 5:13 PM EST
Civil Twilight 7:55 AM EST 5:48 PM EST
Nautical Twilight 7:17 AM EST 6:26 PM EST
Astronomical Twilight 6:40 AM EST 7:02 PM EST
Moon 10:20 AM EST (1/4) 9:49 PM EST (1/4)
Length of Visible Light 9h 52m
Length of Day
8h 43m
Waxing Crescent, 15% of the Moon is Illuminated
Jan 4
Waxing Crescent
Jan 7
First Quarter
Jan 15
Full
Jan 24
Last Quarter
Jan 30
New

Hourly Weather History & Observations

Time (EST) Temp. Windchill Dew Point Humidity Pressure Visibility Wind Dir Wind Speed Gust Speed Precip Events Conditions
12:56 AM 19.9 °F 6.2 °F 10.0 °F 65% 29.60 in - SSW 15.0 mph 26.5 mph 0.01 in   Unknown
1:56 AM 19.9 °F 8.6 °F 10.9 °F 68% 29.62 in - South 10.4 mph 20.7 mph 0.01 in   Unknown
2:56 AM 19.0 °F 10.0 °F 14.0 °F 81% 29.62 in - SSW 6.9 mph - 0.04 in   Unknown
3:56 AM 19.0 °F 7.5 °F 14.0 °F 81% 29.59 in - South 10.4 mph 19.6 mph 0.09 in   Unknown
4:56 AM 19.9 °F 7.3 °F 14.0 °F 78% 29.56 in - South 12.7 mph 26.5 mph 0.09 in   Unknown
5:56 AM 19.9 °F 7.3 °F 14.0 °F 78% 29.55 in - South 12.7 mph - 0.07 in   Unknown
6:56 AM 19.9 °F 7.3 °F 15.1 °F 81% 29.55 in - SSW 12.7 mph 20.7 mph 0.05 in   Unknown
7:56 AM 21.0 °F 8.6 °F 15.1 °F 78% 29.57 in - SSW 12.7 mph 21.9 mph 0.02 in   Unknown
8:56 AM 21.9 °F 10.4 °F 15.1 °F 75% 29.60 in - SW 11.5 mph - 0.02 in   Unknown
9:56 AM 21.9 °F 9.8 °F 15.1 °F 75% 29.61 in - SSW 12.7 mph - N/A   Unknown
10:56 AM 24.1 °F 14.4 °F 16.0 °F 71% 29.65 in - SW 9.2 mph 19.6 mph N/A   Unknown
11:56 AM 26.1 °F 18.4 °F 17.1 °F 69% 29.65 in - WSW 6.9 mph - N/A   Unknown
12:56 PM 26.1 °F 16.8 °F 18.0 °F 71% 29.68 in - West 9.2 mph - N/A   Unknown
1:56 PM 25.0 °F 10.9 °F 16.0 °F 69% 29.73 in - NNW 19.6 mph 26.5 mph 0.01 in   Unknown
2:56 PM 23.0 °F 10.1 °F 14.0 °F 68% 29.79 in - NNW 15.0 mph 27.6 mph N/A   Unknown
3:56 PM 21.9 °F 9.2 °F 10.9 °F 63% 29.83 in - NNW 13.8 mph 19.6 mph N/A   Unknown
4:56 PM 21.0 °F 10.6 °F 10.9 °F 65% 29.89 in - NW 9.2 mph 17.3 mph N/A   Unknown
5:56 PM 19.9 °F 12.1 °F 8.1 °F 60% 29.94 in - West 5.8 mph - N/A   Unknown
6:56 PM 19.9 °F 9.3 °F 7.0 °F 57% 29.96 in - NW 9.2 mph - N/A   Unknown
7:56 PM 19.0 °F 7.5 °F 7.0 °F 59% 29.99 in - WNW 10.4 mph 17.3 mph N/A   Unknown
8:56 PM 19.9 °F 11.1 °F 8.1 °F 60% 29.99 in - WNW 6.9 mph - N/A   Unknown
9:56 PM 19.9 °F 9.3 °F 9.0 °F 62% 30.01 in - NW 9.2 mph 16.1 mph N/A   Unknown
10:56 PM 19.0 °F 10.0 °F 8.1 °F 62% 30.04 in - West 6.9 mph - N/A   Unknown
11:56 PM 18.0 °F 7.7 °F 7.0 °F 62% 30.05 in - West 8.1 mph - N/A   Unknown